DELTA 1 R/B, 515

Orbit data source: Space-Track

DELTA 1 R/B, 515 is space debris originally from a launch on Thu, 13 Dec 1962 UTC launched from the Air Force Eastern Test Range (AFETR). Debris objects in space refer to the collection of defunct objects orbiting the Earth. Examples of debris include non-operational satellites, rocket bodies, and fragments generated from explosions, collisions, or faulty payload assembly.

Loading next visibility...
Identifier
515, 1962-068B
Orbit
Active
Country
Flag of USUS
Related business
Manufacturer
ABL
Mission
Spacecraft
Bus & Motor
ALTAIR, Unknown motor
Mass
24 kg wet, 24 kg dry
Launch date (UTC)
1962-12-13 (64 years ago)
Launch vehicle
Unknown
Launch site
Air Force Eastern Test Range (AFETR)
Object type
Payload
Rocket body
Debris
Shape & HBR
CYL, 0.8 m
Radar Cross Section
Medium (>0.1 m² and <1 m²)

Expand to show TLE details & history
Last TLE update: 3 days ago

TLE from 3 days ago
0 DELTA 1 R/B
1 00515U 62068B   26251.32054828 -.00000027  00000-0  00000-0 0  9991
2 00515  47.4949 251.3293 2830224  19.9882 349.2270  7.79274440814333
Epoch: 2026-09-08T07:41Z
TLE epoch observation values (Epoch: 2026-09-08T07:41:35.371Z)
Latitude
-0.00007°
Longitude
148.54321°
Altitude
1,430.142 km
Speed
8.064 km/s
True Right ascension
16h 45m 19s
True Declination
0° 00' 00"
Sunlit
Object was in daylight at epoch
Visualization orbit readout
Latitude
Unknown
Longitude
Unknown
Altitude
Unknown
Speed
Unknown
Apparent Right ascension
Unknown
Apparent Declination
Unknown
Sunlit
N/A
Visualization observer readout
Local Sidereal Time
15:03:20
Azimuth
Unknown
Elevation
Unknown
Doppler factor
Unknown
Orbital elements
Apogee altitude
7,411.222 km
Perigee altitude
1,327.622 km
Semi-major axis
10,747.559 km
Eccentricity
0.28302
Inclination
47.4949°
RAAN
251.3293°
Arg. of periapsis
19.9882°
True anomaly
340.07818°
Mean anomaly
349.227°
Eccentric anomaly
345.04128°
Mean motion
1.94795 °/min
Orbital period
184.81 mins
BSTAR
0
Loading maneuver chart data...
Computing Atmospheric mass density...
Loading historical data...
Loading historical data...
Loading historical data...
Loading historical data...
Loading historical data...
Loading historical data...
Loading historical data...
Other satellites on launch #68 in the year 1962 (1962-12-13 UTC)

Documentation

Showing up to 5 results
|